FIN1 EFHK-KLAX

Flight info

Callsign FIN1
Flight time N/A
Altitude 36000
Route NEPEK Y361 NISVI DCT RASRU DCT EVTIP DCT H7004/M084F360 DCT H7205/M085F380 DCT BERSO DCT GIRPA DCT MANSE/N0481F380 DCT N6980 DCT N6590/N0494F400 DCT 6098N DCT 55N03 DCT ELTAX DCT KUBZC DCT BONNE DCT HAKMN ANJLL4
Aircraft A359/H-SDE2E3GHIJ3J4J5LM1ORWXY/LB1D1

Departure

Time 2026-05-07 21:42
Airport Helsinki Vantaa Airport (EFHK)

Arrival

Time N/A
Airport Los Angeles International Airport (KLAX)
Time Latitude Longitude Altitude Speed Heading
2026-05-07 21:11 60.31387 24.95858 168 ft 0 kts 329°
2026-05-07 21:24 60.31386 24.95860 168 ft 1 kts 329°
2026-05-07 21:24 60.31382 24.95863 168 ft 0 kts 327°
2026-05-07 21:25 60.31378 24.95869 168 ft 0 kts 327°
2026-05-07 21:25 60.31369 24.95880 168 ft 2 kts 323°
2026-05-07 21:26 60.31356 24.95901 168 ft 2 kts 318°
2026-05-07 21:26 60.31345 24.95925 168 ft 2 kts 304°
2026-05-07 21:26 60.31338 24.95955 168 ft 2 kts 272°
2026-05-07 21:26 60.31341 24.95987 157 ft 2 kts 238°
2026-05-07 21:27 60.31347 24.96002 158 ft 0 kts 231°
2026-05-07 21:27 60.31347 24.96003 157 ft 0 kts 231°
2026-05-07 21:28 60.31347 24.96002 157 ft 0 kts 231°
2026-05-07 21:31 60.31346 24.96000 158 ft 2 kts 231°
2026-05-07 21:31 60.31320 24.95940 151 ft 8 kts 228°
2026-05-07 21:31 60.31275 24.95839 168 ft 12 kts 228°
2026-05-07 21:32 60.31212 24.95705 168 ft 15 kts 226°
2026-05-07 21:32 60.31163 24.95540 168 ft 14 kts 259°
2026-05-07 21:32 60.31191 24.95425 167 ft 7 kts 335°
2026-05-07 21:32 60.31236 24.95378 167 ft 8 kts 327°
2026-05-07 21:33 60.31280 24.95302 167 ft 9 kts 318°
2026-05-07 21:33 60.31328 24.95216 167 ft 10 kts 318°
2026-05-07 21:33 60.31379 24.95118 167 ft 11 kts 315°
2026-05-07 21:33 60.31433 24.95012 167 ft 11 kts 316°
2026-05-07 21:34 60.31480 24.95014 167 ft 7 kts 21°
2026-05-07 21:34 60.31521 24.95070 167 ft 8 kts 40°
2026-05-07 21:34 60.31563 24.95156 168 ft 9 kts 47°
2026-05-07 21:34 60.31610 24.95260 168 ft 11 kts 47°
2026-05-07 21:35 60.31664 24.95379 168 ft 12 kts 47°
2026-05-07 21:35 60.31725 24.95512 168 ft 14 kts 47°
2026-05-07 21:35 60.31800 24.95616 168 ft 13 kts
2026-05-07 21:35 60.31891 24.95611 168 ft 13 kts
2026-05-07 21:36 60.31981 24.95671 169 ft 14 kts 20°
2026-05-07 21:36 60.32073 24.95698 168 ft 14 kts 351°
2026-05-07 21:36 60.32159 24.95602 168 ft 15 kts 319°
2026-05-07 21:36 60.32237 24.95457 167 ft 16 kts 317°
2026-05-07 21:37 60.32321 24.95306 167 ft 16 kts 321°
2026-05-07 21:37 60.32424 24.95218 167 ft 16 kts 342°
2026-05-07 21:37 60.32534 24.95147 167 ft 17 kts 342°
2026-05-07 21:37 60.32648 24.95073 167 ft 18 kts 342°
2026-05-07 21:38 60.32765 24.94996 167 ft 18 kts 342°
2026-05-07 21:38 60.32883 24.94910 167 ft 18 kts 329°
2026-05-07 21:38 60.32981 24.94760 167 ft 17 kts 331°
2026-05-07 21:38 60.33047 24.94824 167 ft 11 kts 49°
2026-05-07 21:39 60.33103 24.94873 167 ft 5 kts 326°
2026-05-07 21:39 60.33112 24.94821 168 ft 4 kts 277°
2026-05-07 21:39 60.33114 24.94751 168 ft 6 kts 272°
2026-05-07 21:39 60.33116 24.94670 169 ft 6 kts 272°
2026-05-07 21:40 60.33118 24.94608 170 ft 3 kts 272°
2026-05-07 21:40 60.33118 24.94599 171 ft 0 kts 272°
2026-05-07 21:40 60.33119 24.94566 173 ft 5 kts 273°
2026-05-07 21:41 60.33119 24.94447 177 ft 13 kts 263°
2026-05-07 21:41 60.33043 24.94236 183 ft 35 kts 228°
2026-05-07 21:41 60.32719 24.93515 178 ft 104 kts 228°
2026-05-07 21:41 60.32091 24.92104 168 ft 163 kts 227°
2026-05-07 21:42 60.31300 24.90268 652 ft 177 kts 237°
2026-05-07 21:42 60.30969 24.87993 1467 ft 166 kts 277°
2026-05-07 21:42 60.31101 24.85602 1925 ft 187 kts 284°
2026-05-07 21:42 60.31346 24.82867 2118 ft 210 kts 284°
2026-05-07 21:43 60.31620 24.79805 2362 ft 232 kts 283°
2026-05-07 21:43 60.32061 24.76610 2839 ft 239 kts 297°
2026-05-07 21:43 60.32828 24.73617 3437 ft 244 kts 301°
2026-05-07 21:43 60.33673 24.70610 4044 ft 248 kts 301°
2026-05-07 21:44 60.34527 24.67571 4691 ft 251 kts 300°
2026-05-07 21:44 60.35402 24.64555 5325 ft 253 kts 304°
2026-05-07 21:44 60.36607 24.62016 5970 ft 256 kts 325°
2026-05-07 21:44 60.38237 24.60643 6648 ft 260 kts 345°
2026-05-07 21:45 60.39983 24.59996 7316 ft 263 kts 349°
2026-05-07 21:45 60.41817 24.59429 8054 ft 264 kts 349°
2026-05-07 21:45 60.43630 24.58858 8786 ft 265 kts 348°
2026-05-07 21:45 60.45463 24.58264 9502 ft 267 kts 348°
2026-05-07 21:46 60.47295 24.57662 10221 ft 268 kts 348°
2026-05-07 21:46 60.49183 24.57031 10604 ft 282 kts 347°
2026-05-07 21:46 60.51153 24.56364 10858 ft 300 kts 347°
2026-05-07 21:46 60.53260 24.55651 11113 ft 316 kts 347°
2026-05-07 21:47 60.55451 24.54912 11450 ft 330 kts 347°
2026-05-07 21:47 60.57744 24.54142 11993 ft 337 kts 346°
2026-05-07 21:47 60.60070 24.53363 12650 ft 340 kts 346°
2026-05-07 21:47 60.62408 24.52577 13363 ft 341 kts 345°
2026-05-07 21:48 60.64753 24.51785 14070 ft 343 kts 345°
2026-05-07 21:48 60.67108 24.50987 14694 ft 345 kts 345°
2026-05-07 21:48 60.69480 24.50181 15326 ft 348 kts 345°
2026-05-07 21:48 60.71883 24.49361 15945 ft 350 kts 344°
2026-05-07 21:49 60.74239 24.48191 16552 ft 347 kts 334°
2026-05-07 21:49 60.76428 24.46301 17208 ft 346 kts 329°
2026-05-07 21:49 60.78566 24.44070 17832 ft 346 kts 326°
2026-05-07 21:49 60.80680 24.41659 18459 ft 347 kts 324°
2026-05-07 21:50 60.82783 24.39182 18981 ft 350 kts 324°
2026-05-07 21:50 60.84904 24.36676 19467 ft 354 kts 324°
2026-05-07 21:50 60.87052 24.34165 19972 ft 357 kts 324°
2026-05-07 21:50 60.89225 24.31653 20492 ft 360 kts 324°
2026-05-07 21:51 60.91420 24.29138 21008 ft 363 kts 324°
2026-05-07 21:51 60.93642 24.26604 21587 ft 367 kts 324°
2026-05-07 21:51 60.95874 24.24065 22161 ft 367 kts 323°
2026-05-07 21:51 60.98086 24.21546 22688 ft 369 kts 323°
2026-05-07 21:52 61.00345 24.18967 23176 ft 372 kts 323°
2026-05-07 21:52 61.02610 24.16372 23704 ft 375 kts 323°
2026-05-07 21:52 61.04892 24.13752 24203 ft 376 kts 323°
2026-05-07 21:52 61.07194 24.11108 23398 ft 378 kts 326°
2026-05-07 21:53 61.09487 24.08474 24750 ft 385 kts 323°
2026-05-07 21:53 61.11772 24.05842 25321 ft 382 kts 323°
2026-05-07 21:53 61.14147 24.03077 25781 ft 383 kts 322°
2026-05-07 21:53 61.16426 24.00164 26078 ft 386 kts 320°
2026-05-07 21:54 61.18647 23.97145 26434 ft 389 kts 319°
2026-05-07 21:54 61.20910 23.94013 26802 ft 392 kts 319°
2026-05-07 21:54 61.23183 23.90872 27182 ft 395 kts 320°
2026-05-07 21:54 61.25481 23.87723 27587 ft 397 kts 320°
2026-05-07 21:55 61.27808 23.84562 27945 ft 400 kts 320°
2026-05-07 21:55 61.30145 23.81406 28309 ft 403 kts 320°
2026-05-07 21:55 61.32515 23.78210 28672 ft 406 kts 320°
2026-05-07 21:55 61.34893 23.75003 29032 ft 409 kts 320°
2026-05-07 21:56 61.37272 23.71790 29572 ft 408 kts 321°
2026-05-07 21:56 61.39632 23.68602 29985 ft 410 kts 320°
2026-05-07 21:56 61.42030 23.65349 30270 ft 413 kts 320°
2026-05-07 21:56 61.44453 23.62053 30483 ft 417 kts 320°
2026-05-07 21:57 61.46889 23.58732 30696 ft 420 kts 320°
2026-05-07 21:57 61.49349 23.55371 30900 ft 423 kts 320°
2026-05-07 21:57 61.51819 23.51992 31107 ft 427 kts 321°
2026-05-07 21:57 61.54315 23.48571 31313 ft 430 kts 321°
2026-05-07 21:58 61.56826 23.45124 31503 ft 433 kts 321°
2026-05-07 21:58 61.59321 23.41692 31701 ft 435 kts 321°
2026-05-07 21:58 61.61859 23.38195 31884 ft 438 kts 321°
2026-05-07 21:58 61.64412 23.34669 32068 ft 441 kts 321°
2026-05-07 21:59 61.66984 23.31110 32251 ft 443 kts 321°
2026-05-07 21:59 61.69564 23.27533 32495 ft 445 kts 321°
2026-05-07 21:59 61.72144 23.23951 32745 ft 446 kts 321°
2026-05-07 21:59 61.74737 23.20342 32938 ft 447 kts 321°
2026-05-07 22:00 61.77345 23.16704 33156 ft 448 kts 321°
2026-05-07 22:00 61.79947 23.13067 33452 ft 449 kts 321°
2026-05-07 22:00 61.82524 23.09455 33639 ft 451 kts 321°
2026-05-07 22:00 61.85143 23.05777 33821 ft 452 kts 321°
2026-05-07 22:01 61.87759 23.02097 34036 ft 453 kts 321°
2026-05-07 22:01 61.90401 22.98371 34214 ft 455 kts 321°
2026-05-07 22:01 61.93032 22.94654 34393 ft 455 kts 321°
2026-05-07 22:01 61.95668 22.90924 34581 ft 455 kts 321°
2026-05-07 22:02 61.98303 22.87186 34759 ft 456 kts 321°
2026-05-07 22:02 62.00938 22.83441 34971 ft 455 kts 321°
2026-05-07 22:02 62.03534 22.79743 35173 ft 455 kts 321°
2026-05-07 22:02 62.06164 22.75988 35314 ft 456 kts 321°
2026-05-07 22:03 62.08802 22.72213 35455 ft 456 kts 321°
2026-05-07 22:03 62.11440 22.68429 35618 ft 457 kts 321°
2026-05-07 22:03 62.14069 22.64651 35761 ft 457 kts 321°
2026-05-07 22:03 62.16709 22.60849 35903 ft 458 kts 321°
2026-05-07 22:04 62.19349 22.57039 36042 ft 458 kts 321°
2026-05-07 22:04 62.21965 22.53255 36212 ft 459 kts 321°
2026-05-07 22:04 62.27326 22.45469 36204 ft 466 kts 321°
2026-05-07 22:05 62.32670 22.37681 36190 ft 467 kts 321°
2026-05-07 22:05 62.38035 22.29836 36211 ft 465 kts 321°
2026-05-07 22:06 62.43378 22.21983 36191 ft 465 kts 321°
2026-05-07 22:06 62.48705 22.14116 36202 ft 465 kts 321°
2026-05-07 22:07 62.54001 22.06260 36205 ft 465 kts 321°
2026-05-07 22:07 62.59332 21.98317 36187 ft 465 kts 321°
2026-05-07 22:08 62.64659 21.90347 36239 ft 465 kts 321°
2026-05-07 22:08 62.69956 21.82383 36194 ft 466 kts 321°
2026-05-07 22:09 62.75291 21.74328 36192 ft 467 kts 321°
2026-05-07 22:09 62.80626 21.66239 36191 ft 467 kts 321°
2026-05-07 22:10 62.85955 21.58122 36187 ft 467 kts 321°
2026-05-07 22:10 62.91290 21.49959 36190 ft 467 kts 321°
2026-05-07 22:11 62.96569 21.41844 36193 ft 466 kts 321°
2026-05-07 22:11 63.01859 21.33677 36184 ft 465 kts 321°
2026-05-07 22:12 63.07148 21.25473 36185 ft 465 kts 321°
2026-05-07 22:12 63.12434 21.17236 36181 ft 465 kts 321°
2026-05-07 22:13 63.17680 21.09024 36173 ft 465 kts 321°
2026-05-07 22:13 63.22945 21.00746 36178 ft 465 kts 321°
2026-05-07 22:14 63.28222 20.92473 36180 ft 465 kts 321°
2026-05-07 22:14 63.33505 20.84216 36179 ft 464 kts 321°
2026-05-07 22:15 63.38779 20.75935 36178 ft 464 kts 321°
2026-05-07 22:15 63.44046 20.67614 36178 ft 463 kts 321°
2026-05-07 22:16 63.49269 20.59319 36182 ft 463 kts 321°
2026-05-07 22:16 63.54530 20.50925 36175 ft 465 kts 321°
2026-05-07 22:17 63.59802 20.42475 36185 ft 466 kts 321°
2026-05-07 22:17 63.65067 20.33999 36184 ft 466 kts 321°
2026-05-07 22:18 63.72934 20.21261 36183 ft 466 kts 321°
2026-05-07 22:19 63.78193 20.12694 36185 ft 466 kts 321°
2026-05-07 22:19 63.83449 20.04094 36179 ft 466 kts 321°
2026-05-07 22:20 63.88704 19.95452 36184 ft 466 kts 320°
2026-05-07 22:20 63.93910 19.86852 36213 ft 466 kts 320°
2026-05-07 22:21 63.99144 19.78161 36186 ft 467 kts 320°
2026-05-07 22:21 64.04391 19.69410 36178 ft 467 kts 320°
2026-05-07 22:22 64.09638 19.60618 36178 ft 467 kts 320°
2026-05-07 22:22 64.14839 19.51862 36188 ft 467 kts 320°
2026-05-07 22:23 64.20065 19.43020 36177 ft 467 kts 320°
2026-05-07 22:23 64.25294 19.34131 36176 ft 467 kts 320°
2026-05-07 22:24 64.30503 19.25235 36195 ft 466 kts 320°
2026-05-07 22:24 64.35709 19.16298 36192 ft 466 kts 320°
2026-05-07 22:25 64.40881 19.07376 36186 ft 468 kts 320°
2026-05-07 22:25 64.46103 18.98327 36184 ft 469 kts 320°
2026-05-07 22:26 64.51323 18.89237 36189 ft 469 kts 320°
2026-05-07 22:26 64.56531 18.80124 36184 ft 469 kts 320°
2026-05-07 22:27 64.61731 18.70980 36181 ft 468 kts 320°
2026-05-07 22:27 64.66892 18.61858 36186 ft 468 kts 320°
2026-05-07 22:28 64.72067 18.52666 36179 ft 468 kts 320°
2026-05-07 22:28 64.77250 18.43414 36184 ft 468 kts 320°
2026-05-07 22:29 64.82385 18.34202 36190 ft 469 kts 320°
2026-05-07 22:29 64.87572 18.24851 36189 ft 470 kts 320°
2026-05-07 22:30 64.92756 18.15461 36185 ft 470 kts 320°
2026-05-07 22:30 64.97922 18.06058 36181 ft 469 kts 319°
2026-05-07 22:31 65.03090 17.96602 36188 ft 469 kts 319°
2026-05-07 22:31 65.08211 17.87184 36185 ft 470 kts 319°
2026-05-07 22:32 65.13368 17.77650 36178 ft 470 kts 319°
2026-05-07 22:32 65.18517 17.68088 36190 ft 469 kts 319°
2026-05-07 22:33 65.23653 17.58497 36187 ft 470 kts 319°
2026-05-07 22:33 65.28766 17.48901 36192 ft 471 kts 319°
2026-05-07 22:34 65.33915 17.39190 36189 ft 472 kts 319°
2026-05-07 22:34 65.39061 17.29436 36188 ft 472 kts 319°
2026-05-07 22:35 65.44175 17.19693 36186 ft 471 kts 319°
2026-05-07 22:35 65.49298 17.09878 36188 ft 471 kts 319°
2026-05-07 22:36 65.54429 16.99998 36190 ft 471 kts 319°
2026-05-07 22:36 65.59527 16.90131 36183 ft 470 kts 319°
2026-05-07 22:37 65.64626 16.80210 36217 ft 470 kts 319°
2026-05-07 22:37 65.69689 16.70309 36192 ft 471 kts 319°
2026-05-07 22:38 65.74790 16.60282 36187 ft 472 kts 318°
2026-05-07 22:38 65.79893 16.50199 36189 ft 472 kts 318°
2026-05-07 22:39 65.84982 16.40090 36189 ft 472 kts 318°
2026-05-07 22:39 65.90060 16.29950 36189 ft 472 kts 318°
2026-05-07 22:40 65.95106 16.19819 36192 ft 472 kts 318°
2026-05-07 22:40 66.00181 16.09576 36190 ft 472 kts 318°
2026-05-07 22:41 66.05238 15.99313 36195 ft 472 kts 318°
2026-05-07 22:41 66.10298 15.88990 36194 ft 473 kts 318°
2026-05-07 22:42 66.15365 15.78598 36193 ft 475 kts 318°
2026-05-07 22:42 66.20407 15.68202 36198 ft 475 kts 318°
2026-05-07 22:43 66.25475 15.57698 36195 ft 475 kts 317°
2026-05-07 22:43 66.30532 15.47158 36196 ft 475 kts 317°
2026-05-07 22:44 66.35584 15.36571 36194 ft 474 kts 317°
2026-05-07 22:44 66.40584 15.26036 36194 ft 474 kts 317°
2026-05-07 22:45 66.45623 15.15361 36189 ft 474 kts 317°
2026-05-07 22:45 66.50661 15.04629 36200 ft 475 kts 317°
2026-05-07 22:46 66.55683 14.93867 36187 ft 477 kts 317°
2026-05-07 22:46 66.60692 14.83080 36184 ft 477 kts 317°
2026-05-07 22:47 66.65724 14.72183 36186 ft 477 kts 317°
2026-05-07 22:47 66.70761 14.61214 36178 ft 477 kts 317°
2026-05-07 22:48 66.75777 14.50230 36173 ft 477 kts 317°
2026-05-07 22:48 66.80787 14.39195 36165 ft 477 kts 317°
2026-05-07 22:49 66.85754 14.28194 36167 ft 477 kts 316°
2026-05-07 22:49 66.90750 14.17067 36168 ft 477 kts 316°
2026-05-07 22:50 66.95746 14.05872 36157 ft 479 kts 316°
2026-05-07 22:50 67.00748 13.94604 36156 ft 480 kts 316°
2026-05-07 22:51 67.05714 13.83354 36154 ft 480 kts 316°
2026-05-07 22:51 67.10701 13.71994 36148 ft 480 kts 316°
2026-05-07 22:52 67.15591 13.60790 36149 ft 480 kts 316°
2026-05-07 22:52 67.20573 13.49311 36154 ft 480 kts 316°
2026-05-07 22:53 67.25535 13.37842 36148 ft 480 kts 316°
2026-05-07 22:53 67.30469 13.26383 36147 ft 480 kts 316°
2026-05-07 22:54 67.35421 13.14811 36145 ft 479 kts 316°
2026-05-07 22:54 67.40371 13.03174 36146 ft 479 kts 316°
2026-05-07 22:55 67.45274 12.91581 36135 ft 480 kts 316°
2026-05-07 22:55 67.50203 12.79855 36135 ft 480 kts 315°
2026-05-07 22:56 67.55134 12.68057 36135 ft 480 kts 315°
2026-05-07 22:56 67.60051 12.56224 36129 ft 480 kts 315°
2026-05-07 22:57 67.64934 12.44401 36126 ft 480 kts 315°
2026-05-07 22:57 67.69838 12.32459 36127 ft 480 kts 315°
2026-05-07 22:58 67.74721 12.20496 36130 ft 480 kts 315°
2026-05-07 22:58 67.79624 12.08409 36135 ft 482 kts 315°
2026-05-07 22:59 67.84484 11.96360 36124 ft 483 kts 315°
2026-05-07 22:59 67.89380 11.84146 36118 ft 482 kts 315°
2026-05-07 23:00 67.94258 11.71906 36115 ft 482 kts 315°
2026-05-07 23:00 67.99094 11.59697 36116 ft 482 kts 315°
2026-05-07 23:01 68.03948 11.47366 36114 ft 482 kts 315°
2026-05-07 23:01 68.08802 11.34959 36105 ft 483 kts 314°
2026-05-07 23:02 68.13647 11.22499 36104 ft 483 kts 314°
2026-05-07 23:02 68.18484 11.09984 36110 ft 484 kts 314°
2026-05-07 23:03 68.23291 10.97468 36108 ft 485 kts 314°
2026-05-07 23:03 68.28114 10.84836 36103 ft 485 kts 314°
2026-05-07 23:04 68.32119 10.74284 36103 ft 485 kts 314°
2026-05-07 23:04 68.36938 10.61517 36101 ft 485 kts 314°
2026-05-07 23:05 68.41746 10.48696 36094 ft 485 kts 314°
2026-05-07 23:05 68.47324 10.33723 36096 ft 485 kts 314°
2026-05-07 23:06 68.51317 10.22936 36100 ft 485 kts 314°
2026-05-07 23:06 68.56095 10.09952 36107 ft 485 kts 314°
2026-05-07 23:07 68.60862 9.96918 36091 ft 485 kts 314°
2026-05-07 23:07 68.66398 9.81674 36095 ft 486 kts 314°
2026-05-07 23:08 68.70356 9.70706 36090 ft 487 kts 313°
2026-05-07 23:08 68.75119 9.57430 36082 ft 487 kts 313°
2026-05-07 23:09 68.79852 9.44152 36087 ft 487 kts 313°
2026-05-07 23:09 68.84584 9.30790 36087 ft 487 kts 313°
2026-05-07 23:10 68.89287 9.17426 36075 ft 487 kts 313°
2026-05-07 23:10 68.94002 9.03939 36082 ft 487 kts 313°
2026-05-07 23:11 68.98704 8.90400 36088 ft 487 kts 313°
2026-05-07 23:11 69.03418 8.76737 36084 ft 488 kts 313°
2026-05-07 23:12 69.08114 8.63034 36078 ft 487 kts 313°
2026-05-07 23:12 69.12754 8.49409 36078 ft 488 kts 312°
2026-05-07 23:13 69.17418 8.35623 36081 ft 487 kts 312°
2026-05-07 23:13 69.22070 8.21777 36078 ft 487 kts 312°
2026-05-07 23:14 69.26717 8.07855 36079 ft 488 kts 312°
2026-05-07 23:14 69.31339 7.93915 36083 ft 489 kts 312°
2026-05-07 23:15 69.35978 7.79827 36086 ft 489 kts 312°
2026-05-07 23:15 69.40607 7.65677 36084 ft 490 kts 312°
2026-05-07 23:16 69.45236 7.51428 36081 ft 491 kts 312°
2026-05-07 23:16 69.49829 7.37197 36085 ft 491 kts 312°
2026-05-07 23:17 69.54439 7.22815 36084 ft 490 kts 311°
2026-05-07 23:17 69.59016 7.08433 36084 ft 491 kts 311°
2026-05-07 23:18 69.63600 6.93931 36088 ft 491 kts 311°
2026-05-07 23:18 69.68156 6.79418 36084 ft 492 kts 311°
2026-05-07 23:19 69.72717 6.64788 36083 ft 491 kts 311°
2026-05-07 23:19 69.77282 6.50043 36096 ft 492 kts 311°
2026-05-07 23:20 69.81825 6.35264 36080 ft 493 kts 311°
2026-05-07 23:20 69.86366 6.20390 36096 ft 493 kts 311°
2026-05-07 23:21 69.90873 6.05521 36095 ft 493 kts 311°
2026-05-07 23:21 69.95393 5.90502 36094 ft 493 kts 310°
2026-05-07 23:22 69.99902 5.75412 36097 ft 493 kts 310°
2026-05-07 23:22 70.04399 5.60254 36096 ft 493 kts 310°
2026-05-07 23:23 70.08846 5.45159 36098 ft 493 kts 310°
2026-05-07 23:23 70.13310 5.29895 36108 ft 493 kts 310°
2026-05-07 23:24 70.17777 5.14510 36104 ft 493 kts 310°
2026-05-07 23:24 70.22221 4.99092 36089 ft 494 kts 310°
2026-05-07 23:25 70.26625 4.83704 36109 ft 494 kts 310°
2026-05-07 23:25 70.31055 4.68109 36111 ft 494 kts 309°
2026-05-07 23:26 70.35464 4.52474 36109 ft 493 kts 309°
2026-05-07 23:26 70.39841 4.36836 36092 ft 493 kts 309°
2026-05-07 23:27 70.46362 4.13322 36095 ft 493 kts 309°
2026-05-07 23:27 70.50715 3.97480 36101 ft 493 kts 309°
2026-05-07 23:28 70.55047 3.81531 36124 ft 493 kts 308°
2026-05-07 23:28 70.59359 3.65479 36103 ft 493 kts 308°
2026-05-07 23:29 70.63631 3.49463 36104 ft 494 kts 308°
2026-05-07 23:29 70.67904 3.33335 36132 ft 492 kts 308°
2026-05-07 23:30 70.72160 3.17153 36130 ft 492 kts 308°
2026-05-07 23:30 70.76414 3.00855 36123 ft 492 kts 308°
2026-05-07 23:31 70.80641 2.84540 36124 ft 492 kts 307°
2026-05-07 23:31 70.84837 2.68215 36140 ft 492 kts 307°
2026-05-07 23:32 70.89047 2.51710 36144 ft 493 kts 307°
2026-05-07 23:32 70.93243 2.35133 36144 ft 494 kts 307°
2026-05-07 23:33 70.97440 2.18425 36154 ft 495 kts 307°
2026-05-07 23:33 71.01622 2.01642 36160 ft 495 kts 307°
2026-05-07 23:34 71.05760 1.84907 36173 ft 495 kts 307°
2026-05-07 23:34 71.09917 1.67962 36163 ft 496 kts 307°
2026-05-07 23:35 71.14068 1.50905 36164 ft 496 kts 306°
2026-05-07 23:35 71.18208 1.33755 36175 ft 495 kts 306°
2026-05-07 23:36 71.22258 1.16845 36192 ft 495 kts 306°
2026-05-07 23:36 71.26352 0.99615 36178 ft 496 kts 306°
2026-05-07 23:37 71.30437 0.82286 36183 ft 497 kts 306°
2026-05-07 23:37 71.34505 0.64884 36186 ft 496 kts 306°
2026-05-07 23:38 71.38550 0.47436 36206 ft 496 kts 306°
2026-05-07 23:38 71.42583 0.29902 36195 ft 496 kts 305°
2026-05-07 23:39 71.46579 0.12383 36197 ft 496 kts 305°
2026-05-07 23:39 71.50579 -0.05295 36220 ft 496 kts 305°
2026-05-07 23:40 71.54563 -0.23055 36221 ft 497 kts 305°
2026-05-07 23:40 71.58521 -0.40839 36214 ft 497 kts 305°
2026-05-07 23:41 71.62476 -0.58765 36208 ft 498 kts 305°
2026-05-07 23:41 71.66424 -0.76807 36226 ft 497 kts 304°
2026-05-07 23:42 71.70358 -0.94937 36218 ft 497 kts 304°
2026-05-07 23:42 71.74259 -1.13070 36222 ft 497 kts 304°
2026-05-07 23:43 71.78134 -1.31236 36237 ft 497 kts 304°
2026-05-07 23:43 71.82008 -1.49556 36225 ft 497 kts 304°
2026-05-07 23:44 71.85861 -1.67934 36228 ft 497 kts 304°
2026-05-07 23:44 71.89704 -1.86422 36248 ft 497 kts 303°
2026-05-07 23:45 71.93523 -2.04959 36254 ft 497 kts 303°
2026-05-07 23:45 71.97305 -2.23469 36239 ft 497 kts 303°
2026-05-07 23:46 72.01088 -2.42154 36246 ft 497 kts 303°
2026-05-07 23:46 72.04865 -2.60969 36247 ft 497 kts 303°
2026-05-07 23:47 72.08614 -2.79813 36247 ft 497 kts 303°
2026-05-07 23:47 72.12323 -2.98627 36269 ft 497 kts 303°
2026-05-07 23:48 72.16034 -3.17616 36256 ft 497 kts 302°
2026-05-07 23:48 72.19734 -3.36718 36254 ft 497 kts 302°
2026-05-07 23:49 72.23407 -3.55859 36263 ft 497 kts 302°
2026-05-07 23:49 72.27073 -3.75132 36279 ft 498 kts 302°
2026-05-07 23:50 72.30688 -3.94314 36262 ft 498 kts 302°
2026-05-07 23:50 72.34316 -4.13740 36266 ft 498 kts 302°
2026-05-07 23:51 72.37915 -4.33188 36275 ft 497 kts 302°
2026-05-07 23:51 72.41499 -4.52741 36274 ft 497 kts 301°
2026-05-07 23:52 72.45041 -4.72239 36277 ft 497 kts 301°
2026-05-07 23:52 72.48583 -4.91927 36326 ft 497 kts 301°
2026-05-07 23:53 72.50351 -5.01820 36527 ft 496 kts 301°
2026-05-07 23:53 72.52113 -5.11638 36754 ft 495 kts 302°
2026-05-07 23:53 72.53890 -5.21454 36921 ft 495 kts 302°
2026-05-07 23:53 72.55675 -5.31301 37064 ft 495 kts 301°
2026-05-07 23:54 72.57444 -5.41102 37245 ft 494 kts 301°
2026-05-07 23:54 72.59190 -5.50833 37381 ft 494 kts 301°
2026-05-07 23:54 72.60948 -5.60698 37532 ft 494 kts 301°
2026-05-07 23:54 72.62699 -5.70580 37644 ft 494 kts 301°
2026-05-07 23:55 72.64443 -5.80481 37773 ft 495 kts 301°
2026-05-07 23:55 72.66184 -5.90414 37905 ft 495 kts 301°
2026-05-07 23:55 72.67927 -6.00408 38008 ft 495 kts 301°
2026-05-07 23:55 72.69659 -6.10388 38113 ft 495 kts 301°
2026-05-07 23:56 72.71382 -6.20362 38251 ft 494 kts 301°
2026-05-07 23:56 72.73105 -6.30384 38287 ft 496 kts 300°
2026-05-07 23:56 72.76536 -6.50482 38291 ft 500 kts 300°
2026-05-07 23:57 72.79987 -6.70895 38289 ft 500 kts 300°
2026-05-07 23:57 72.83416 -6.91378 38290 ft 499 kts 300°
2026-05-07 23:58 72.86814 -7.11878 38296 ft 500 kts 300°
2026-05-07 23:58 72.90151 -7.32217 38295 ft 500 kts 300°
2026-05-07 23:59 72.93512 -7.52900 38292 ft 500 kts 300°
2026-05-07 23:59 72.96856 -7.73692 38300 ft 499 kts 299°
2026-05-08 00:00 73.00174 -7.94528 38303 ft 499 kts 299°
2026-05-08 00:00 73.03448 -8.15297 38303 ft 500 kts 299°
2026-05-08 00:01 73.06723 -8.36294 38304 ft 500 kts 298°
2026-05-08 00:01 73.09975 -8.57352 38304 ft 499 kts 298°
2026-05-08 00:02 73.13203 -8.78480 38303 ft 499 kts 298°
2026-05-08 00:02 73.16415 -8.99718 38303 ft 499 kts 298°
2026-05-08 00:03 73.19599 -9.20998 38306 ft 499 kts 298°
2026-05-08 00:03 73.22744 -9.42243 38306 ft 499 kts 298°
2026-05-08 00:04 73.25884 -9.63673 38303 ft 499 kts 297°
2026-05-08 00:04 73.29004 -9.85196 38310 ft 499 kts 297°
2026-05-08 00:05 73.32084 -10.06681 38312 ft 499 kts 297°
2026-05-08 00:05 73.35160 -10.28369 38318 ft 499 kts 297°
2026-05-08 00:06 73.38205 -10.50071 38307 ft 499 kts 297°
2026-05-08 00:06 73.41230 -10.71871 38310 ft 498 kts 297°
2026-05-08 00:07 73.44233 -10.93754 38332 ft 498 kts 296°
2026-05-08 00:07 73.47186 -11.15517 38311 ft 498 kts 296°
2026-05-08 00:08 73.50145 -11.37566 38310 ft 498 kts 296°
2026-05-08 00:08 73.53074 -11.59645 38337 ft 498 kts 296°
2026-05-08 00:09 73.55985 -11.81835 38326 ft 498 kts 296°
2026-05-08 00:09 73.58867 -12.04060 38332 ft 498 kts 296°
2026-05-08 00:10 73.61708 -12.26222 38340 ft 498 kts 295°
2026-05-08 00:10 73.64543 -12.48593 38337 ft 498 kts 295°
2026-05-08 00:11 73.67356 -12.71050 38346 ft 498 kts 295°
2026-05-08 00:11 73.70129 -12.93461 38345 ft 498 kts 295°
2026-05-08 00:12 73.72891 -13.16043 38342 ft 498 kts 294°
2026-05-08 00:12 73.75635 -13.38756 38349 ft 497 kts 294°
2026-05-08 00:13 73.78347 -13.61479 38349 ft 497 kts 294°
2026-05-08 00:13 73.81036 -13.84274 38353 ft 497 kts 294°
2026-05-08 00:14 73.83688 -14.07043 38351 ft 497 kts 294°
2026-05-08 00:14 73.86330 -14.30007 38353 ft 497 kts 293°
2026-05-08 00:15 73.88942 -14.53001 38359 ft 497 kts 293°
2026-05-08 00:15 73.91520 -14.75978 38361 ft 497 kts 293°
2026-05-08 00:16 73.94085 -14.99130 38362 ft 497 kts 292°
2026-05-08 00:16 73.96627 -15.22374 38365 ft 497 kts 292°
2026-05-08 00:17 73.99144 -15.45690 38360 ft 497 kts 292°
2026-05-08 00:17 74.01623 -15.68962 38367 ft 497 kts 292°
2026-05-08 00:18 74.04091 -15.92431 38367 ft 497 kts 292°
2026-05-08 00:18 74.06532 -16.15961 38367 ft 497 kts 291°
2026-05-08 00:19 74.08949 -16.39575 38355 ft 497 kts 291°
2026-05-08 00:19 74.11334 -16.63200 38365 ft 497 kts 291°
2026-05-08 00:20 74.13680 -16.86763 38371 ft 497 kts 291°
2026-05-08 00:20 74.16016 -17.10545 38371 ft 497 kts 291°
2026-05-08 00:21 74.18328 -17.34414 38371 ft 497 kts 290°
2026-05-08 00:21 74.20610 -17.58312 38376 ft 497 kts 290°
2026-05-08 00:22 74.22854 -17.82151 38376 ft 497 kts 290°
2026-05-08 00:22 74.25083 -18.06173 38374 ft 497 kts 290°
2026-05-08 00:23 74.27286 -18.30274 38376 ft 496 kts 289°
2026-05-08 00:23 74.29463 -18.54437 38377 ft 496 kts 289°
2026-05-08 00:24 74.31610 -18.78632 38379 ft 496 kts 289°
2026-05-08 00:24 74.33718 -19.02751 38376 ft 496 kts 289°
2026-05-08 00:25 74.35812 -19.27079 38376 ft 496 kts 288°
2026-05-08 00:25 74.37881 -19.51486 38366 ft 496 kts 288°
2026-05-08 00:26 74.39919 -19.75910 38379 ft 495 kts 288°
2026-05-08 00:26 74.41917 -20.00240 38384 ft 495 kts 288°
2026-05-08 00:27 74.43871 -20.24403 38382 ft 495 kts 287°
2026-05-08 00:27 74.45818 -20.48885 38382 ft 495 kts 287°
2026-05-08 00:28 74.47759 -20.73540 38379 ft 495 kts 287°
2026-05-08 00:28 74.49718 -20.98211 38380 ft 495 kts 287°
2026-05-08 00:29 74.51637 -21.22693 38372 ft 494 kts 287°
2026-05-08 00:29 74.53536 -21.47420 38378 ft 493 kts 287°
2026-05-08 00:30 74.55401 -21.72164 38376 ft 493 kts 286°
2026-05-08 00:30 74.57227 -21.96818 38373 ft 493 kts 286°
2026-05-08 00:31 74.59035 -22.21658 38386 ft 493 kts 286°
2026-05-08 00:31 74.60816 -22.46558 38377 ft 493 kts 285°
2026-05-08 00:32 74.62569 -22.71518 38380 ft 493 kts 285°
2026-05-08 00:32 74.64298 -22.96577 38388 ft 493 kts 285°
2026-05-08 00:33 74.65980 -23.21420 38385 ft 491 kts 285°
2026-05-08 00:33 74.67641 -23.46414 38382 ft 491 kts 285°
2026-05-08 00:34 74.69279 -23.71527 38413 ft 491 kts 284°
2026-05-08 00:34 74.70887 -23.96664 38415 ft 491 kts 284°
2026-05-08 00:35 74.72467 -24.21861 38438 ft 491 kts 284°
2026-05-08 00:35 74.74007 -24.46901 38422 ft 491 kts 284°
2026-05-08 00:36 74.75532 -24.72211 38420 ft 490 kts 284°
2026-05-08 00:36 74.77022 -24.97470 38407 ft 489 kts 283°
2026-05-08 00:37 74.78481 -25.22718 38407 ft 489 kts 283°
2026-05-08 00:38 74.80611 -25.60575 38388 ft 489 kts 283°
2026-05-08 00:38 74.82002 -25.86000 38386 ft 489 kts 283°
2026-05-08 00:39 74.83363 -26.11415 38387 ft 489 kts 282°
2026-05-08 00:39 74.84696 -26.36920 38365 ft 489 kts 282°
2026-05-08 00:40 74.85990 -26.62242 38372 ft 488 kts 282°
2026-05-08 00:40 74.87261 -26.87723 38373 ft 487 kts 282°
2026-05-08 00:41 74.88502 -27.13194 38366 ft 487 kts 282°
2026-05-08 00:41 74.89718 -27.38795 38350 ft 488 kts 281°
2026-05-08 00:42 74.90895 -27.64210 38346 ft 487 kts 281°
2026-05-08 00:42 74.92051 -27.89828 38341 ft 488 kts 281°
2026-05-08 00:43 74.93181 -28.15561 38335 ft 487 kts 281°
2026-05-08 00:43 74.94277 -28.41224 38318 ft 486 kts 280°
2026-05-08 00:44 74.95335 -28.66691 38322 ft 486 kts 280°
2026-05-08 00:44 74.96372 -28.92363 38323 ft 486 kts 280°
2026-05-08 00:45 74.97381 -29.18089 38310 ft 486 kts 279°
2026-05-08 00:45 74.98361 -29.43853 38310 ft 486 kts 279°
2026-05-08 00:46 74.99313 -29.69688 38311 ft 486 kts 279°
2026-05-08 00:46 75.00227 -29.95309 38294 ft 486 kts 279°
2026-05-08 00:47 75.01119 -30.21136 38303 ft 484 kts 279°
2026-05-08 00:47 75.01979 -30.46933 38303 ft 484 kts 278°
2026-05-08 00:48 75.02809 -30.72703 38303 ft 484 kts 278°
2026-05-08 00:48 75.03604 -30.98314 38303 ft 484 kts 278°
2026-05-08 00:49 75.04376 -31.24135 38300 ft 484 kts 278°
2026-05-08 00:49 75.05121 -31.50027 38295 ft 484 kts 277°
2026-05-08 00:50 75.05836 -31.75970 38295 ft 484 kts 277°
2026-05-08 00:50 75.06522 -32.01921 38283 ft 484 kts 277°
2026-05-08 00:51 75.07175 -32.27724 38288 ft 485 kts 277°
2026-05-08 00:51 75.07803 -32.53723 38291 ft 485 kts 276°
2026-05-08 00:52 75.08402 -32.79800 38283 ft 485 kts 276°
2026-05-08 00:52 75.08972 -33.05882 38279 ft 485 kts 276°
2026-05-08 00:53 75.09508 -33.31757 38288 ft 485 kts 276°
2026-05-08 00:53 75.10018 -33.57860 38275 ft 484 kts 276°
2026-05-08 00:54 75.10498 -33.83923 38284 ft 483 kts 275°
2026-05-08 00:54 75.10947 -34.09924 38284 ft 482 kts 275°
2026-05-08 00:55 75.11365 -34.35814 38279 ft 483 kts 275°
2026-05-08 00:55 75.11756 -34.61852 38278 ft 483 kts 275°
2026-05-08 00:56 75.12118 -34.87937 38279 ft 483 kts 274°
2026-05-08 00:56 75.12450 -35.14057 38279 ft 483 kts 274°
2026-05-08 00:57 75.12751 -35.39957 38275 ft 482 kts 274°
2026-05-08 00:57 75.13023 -35.65981 38277 ft 481 kts 274°
2026-05-08 00:58 75.13266 -35.91948 38276 ft 480 kts 274°
2026-05-08 00:58 75.13480 -36.17965 38275 ft 480 kts 273°
2026-05-08 00:59 75.13664 -36.43962 38273 ft 481 kts 273°
2026-05-08 00:59 75.13820 -36.70027 38274 ft 481 kts 273°
2026-05-08 01:00 75.13945 -36.95863 38274 ft 481 kts 272°
2026-05-08 01:00 75.14041 -37.21882 38268 ft 480 kts 272°
2026-05-08 01:01 75.14108 -37.47876 38273 ft 478 kts 272°
2026-05-08 01:01 75.14146 -37.73737 38268 ft 478 kts 272°
2026-05-08 01:02 75.14156 -37.99486 38266 ft 478 kts 272°
2026-05-08 01:02 75.14136 -38.25426 38266 ft 478 kts 272°
2026-05-08 01:03 75.14087 -38.51352 38266 ft 479 kts 271°
2026-05-08 01:03 75.14010 -38.77119 38263 ft 479 kts 271°
2026-05-08 01:04 75.13903 -39.03019 38260 ft 478 kts 271°
2026-05-08 01:04 75.13767 -39.28878 38258 ft 477 kts 271°
2026-05-08 01:05 75.13603 -39.54659 38259 ft 476 kts 271°
2026-05-08 01:05 75.13411 -39.80421 38257 ft 477 kts 270°
2026-05-08 01:06 75.13191 -40.06079 38248 ft 477 kts 270°
2026-05-08 01:06 75.12941 -40.31833 38249 ft 477 kts 270°
2026-05-08 01:07 75.12661 -40.57670 38252 ft 477 kts 270°
2026-05-08 01:07 75.12353 -40.83414 38234 ft 477 kts 270°
2026-05-08 01:08 75.12019 -41.08962 38251 ft 475 kts 269°
2026-05-08 01:08 75.11655 -41.34611 38241 ft 475 kts 269°
2026-05-08 01:09 75.11263 -41.60255 38237 ft 475 kts 269°
2026-05-08 01:09 75.10842 -41.85930 38232 ft 475 kts 269°
2026-05-08 01:10 75.10392 -42.11564 38253 ft 476 kts 268°
2026-05-08 01:10 75.09914 -42.37045 38241 ft 476 kts 268°
2026-05-08 01:11 75.09016 -42.62541 38232 ft 477 kts 263°
2026-05-08 01:11 75.07865 -42.87894 38231 ft 476 kts 263°
2026-05-08 01:12 75.06748 -43.13185 38250 ft 476 kts 263°
2026-05-08 01:12 75.05661 -43.38474 38248 ft 476 kts 263°
2026-05-08 01:13 75.04571 -43.63526 38244 ft 476 kts 263°
2026-05-08 01:13 75.03440 -43.88798 38248 ft 476 kts 263°
2026-05-08 01:14 75.02282 -44.13966 38247 ft 476 kts 263°
2026-05-08 01:14 75.01091 -44.39164 38246 ft 475 kts 262°
2026-05-08 01:15 74.99886 -44.64065 38250 ft 475 kts 262°
2026-05-08 01:15 74.98647 -44.89060 38250 ft 475 kts 262°
2026-05-08 01:16 74.97380 -45.14044 38244 ft 475 kts 262°
2026-05-08 01:16 74.96088 -45.38943 38249 ft 475 kts 262°
2026-05-08 01:17 74.94763 -45.63900 38241 ft 475 kts 261°
2026-05-08 01:17 74.93423 -45.88598 38240 ft 475 kts 261°
2026-05-08 01:18 74.92047 -46.13417 38248 ft 475 kts 261°
2026-05-08 01:18 74.90643 -46.38198 38223 ft 475 kts 261°
2026-05-08 01:19 74.89214 -46.62914 38231 ft 475 kts 260°
2026-05-08 01:19 74.87768 -46.87426 38231 ft 475 kts 260°
2026-05-08 01:20 74.86284 -47.12078 38217 ft 475 kts 260°
2026-05-08 01:20 74.84772 -47.36695 38216 ft 475 kts 259°
2026-05-08 01:21 74.83236 -47.61231 38192 ft 475 kts 259°
2026-05-08 01:21 74.81670 -47.85765 38210 ft 475 kts 259°
2026-05-08 01:22 74.80093 -48.10017 38207 ft 475 kts 259°
2026-05-08 01:22 74.78480 -48.34367 38220 ft 475 kts 258°
2026-05-08 01:23 74.76840 -48.58687 38222 ft 475 kts 258°
2026-05-08 01:23 74.75453 -48.78914 38219 ft 475 kts 258°
2026-05-08 01:24 74.73486 -49.07097 38206 ft 475 kts 258°
2026-05-08 01:24 74.71767 -49.31269 38212 ft 475 kts 258°
2026-05-08 01:25 74.70019 -49.55439 38198 ft 475 kts 257°
2026-05-08 01:25 74.68546 -49.75477 38195 ft 476 kts 257°
2026-05-08 01:26 74.66456 -50.03454 38197 ft 476 kts 257°
2026-05-08 01:26 74.64631 -50.27446 38193 ft 476 kts 257°
2026-05-08 01:27 74.63082 -50.47509 38190 ft 476 kts 257°
2026-05-08 01:27 74.61221 -50.71269 38189 ft 476 kts 256°
2026-05-08 01:28 74.59322 -50.95120 38183 ft 476 kts 256°
2026-05-08 01:28 74.57399 -51.18899 38185 ft 475 kts 256°
2026-05-08 01:29 74.55451 -51.42626 38175 ft 476 kts 256°
2026-05-08 01:29 74.53492 -51.66123 38172 ft 476 kts 255°
2026-05-08 01:30 74.51493 -51.89735 38171 ft 476 kts 255°
2026-05-08 01:30 74.49469 -52.13290 38165 ft 476 kts 255°
2026-05-08 01:31 74.47419 -52.36793 38132 ft 476 kts 255°
2026-05-08 01:31 74.45344 -52.60242 38167 ft 476 kts 255°
2026-05-08 01:32 74.43245 -52.83622 38160 ft 476 kts 254°
2026-05-08 01:32 74.41135 -53.06801 38159 ft 476 kts 254°
2026-05-08 01:33 74.38985 -53.30076 38156 ft 476 kts 254°
2026-05-08 01:33 74.36809 -53.53305 38156 ft 477 kts 253°
2026-05-08 01:34 74.34621 -53.76344 38157 ft 477 kts 253°
2026-05-08 01:34 74.32396 -53.99457 38146 ft 477 kts 253°
2026-05-08 01:35 74.30145 -54.22519 38157 ft 477 kts 253°
2026-05-08 01:35 74.27867 -54.45552 38154 ft 477 kts 252°
2026-05-08 01:36 74.25566 -54.68506 38152 ft 478 kts 252°
2026-05-08 01:36 74.23258 -54.91230 38152 ft 478 kts 252°
2026-05-08 01:37 74.20908 -55.14064 38154 ft 478 kts 252°
2026-05-08 01:37 74.18532 -55.36849 38153 ft 478 kts 252°
2026-05-08 01:38 74.16137 -55.59528 38148 ft 479 kts 251°
2026-05-08 01:38 74.13724 -55.82095 38169 ft 480 kts 251°
2026-05-08 01:39 74.11265 -56.04789 38167 ft 479 kts 251°
2026-05-08 01:39 74.08797 -56.27290 38147 ft 479 kts 251°
2026-05-08 01:40 74.06301 -56.49769 38170 ft 479 kts 251°
2026-05-08 01:40 74.03775 -56.72230 38172 ft 479 kts 250°
2026-05-08 01:41 74.01250 -56.94415 38149 ft 479 kts 250°
2026-05-08 01:41 73.98679 -57.16736 38165 ft 481 kts 250°
2026-05-08 01:42 73.96077 -57.39058 38165 ft 482 kts 250°
2026-05-08 01:42 73.93449 -57.61333 38170 ft 482 kts 250°
2026-05-08 01:43 73.90800 -57.83510 38167 ft 482 kts 249°
2026-05-08 01:43 73.88144 -58.05491 38169 ft 481 kts 249°
2026-05-08 01:44 73.85451 -58.27517 38176 ft 481 kts 249°
2026-05-08 01:44 73.82736 -58.49471 38182 ft 482 kts 248°
2026-05-08 01:45 73.79983 -58.71488 38180 ft 484 kts 248°
2026-05-08 01:45 73.77210 -58.93400 38180 ft 484 kts 248°
2026-05-08 01:46 73.74433 -59.15100 38181 ft 484 kts 248°
2026-05-08 01:46 73.71633 -59.36729 38188 ft 484 kts 248°
2026-05-08 01:47 73.68786 -59.58478 38188 ft 484 kts 247°
2026-05-08 01:47 73.65917 -59.80155 38161 ft 484 kts 247°
2026-05-08 01:48 73.61594 -60.12356 38196 ft 485 kts 246°
2026-05-08 01:48 73.58665 -60.33891 38195 ft 486 kts 246°
2026-05-08 01:49 73.55711 -60.55375 38195 ft 486 kts 246°
2026-05-08 01:49 73.52734 -60.76779 38195 ft 487 kts 246°
2026-05-08 01:50 73.49751 -60.97999 38197 ft 487 kts 246°
2026-05-08 01:50 73.46727 -61.19289 38177 ft 487 kts 245°
2026-05-08 01:51 73.43684 -61.40486 38198 ft 487 kts 245°
2026-05-08 01:51 73.40613 -61.61643 38197 ft 487 kts 245°
2026-05-08 01:52 73.37537 -61.82617 38200 ft 487 kts 244°
2026-05-08 01:52 73.34425 -62.03622 38200 ft 488 kts 244°
2026-05-08 01:53 73.31293 -62.24539 38203 ft 488 kts 244°
2026-05-08 01:53 73.28137 -62.45404 38202 ft 488 kts 244°
2026-05-08 01:54 73.24957 -62.66211 38195 ft 488 kts 243°
2026-05-08 01:54 73.21766 -62.86874 38212 ft 489 kts 243°
2026-05-08 01:55 73.18543 -63.07533 38215 ft 489 kts 243°
2026-05-08 01:55 73.15295 -63.28150 38194 ft 489 kts 243°
2026-05-08 01:56 73.12029 -63.48666 38193 ft 489 kts 243°
2026-05-08 01:56 73.08761 -63.68996 38193 ft 489 kts 242°
2026-05-08 01:57 73.05450 -63.89396 38215 ft 489 kts 242°
2026-05-08 01:57 73.02122 -64.09693 38195 ft 489 kts 242°
2026-05-08 01:58 72.98762 -64.29983 38190 ft 490 kts 242°
2026-05-08 01:58 72.95409 -64.50039 38212 ft 491 kts 242°
2026-05-08 01:59 72.92005 -64.70202 38206 ft 491 kts 242°
2026-05-08 01:59 72.88585 -64.90268 38187 ft 491 kts 241°
2026-05-08 02:00 72.85285 -65.10508 38201 ft 490 kts 244°
2026-05-08 02:00 72.82188 -65.30930 38199 ft 491 kts 244°
2026-05-08 02:01 72.79043 -65.51367 38196 ft 491 kts 243°
2026-05-08 02:01 72.75828 -65.71728 38190 ft 491 kts 243°
2026-05-08 02:02 72.72593 -65.91899 38193 ft 491 kts 243°
2026-05-08 02:02 72.69344 -66.11947 38194 ft 492 kts 242°
2026-05-08 02:03 72.66055 -66.32062 38188 ft 493 kts 242°
2026-05-08 02:03 72.62733 -66.52181 38184 ft 493 kts 242°
2026-05-08 02:04 72.59398 -66.72191 38189 ft 494 kts 242°
2026-05-08 02:04 72.56033 -66.92182 38182 ft 494 kts 242°
2026-05-08 02:05 72.52670 -67.11971 38185 ft 494 kts 241°
2026-05-08 02:05 72.49267 -67.31808 38172 ft 494 kts 241°
2026-05-08 02:06 72.45842 -67.51580 38183 ft 494 kts 241°
2026-05-08 02:06 72.42402 -67.71250 38182 ft 494 kts 241°
2026-05-08 02:07 72.38941 -67.90864 38180 ft 495 kts 240°
2026-05-08 02:07 72.35470 -68.10342 38180 ft 495 kts 240°
2026-05-08 02:08 72.31959 -68.29860 38175 ft 495 kts 240°
2026-05-08 02:08 72.28430 -68.49303 38180 ft 496 kts 240°
2026-05-08 02:09 72.24884 -68.68657 38180 ft 495 kts 239°
2026-05-08 02:09 72.21335 -68.87846 38172 ft 495 kts 239°
2026-05-08 02:10 72.17750 -69.07064 38173 ft 496 kts 239°
2026-05-08 02:10 72.14136 -69.26254 38178 ft 497 kts 238°
2026-05-08 02:11 72.10500 -69.45390 38169 ft 497 kts 238°
2026-05-08 02:11 72.06867 -69.64334 38170 ft 497 kts 238°
2026-05-08 02:12 72.03196 -69.83305 38173 ft 497 kts 238°
2026-05-08 02:12 71.99511 -70.02183 38172 ft 497 kts 238°
2026-05-08 02:13 71.95802 -70.21016 38172 ft 497 kts 238°
2026-05-08 02:13 71.92096 -70.39663 38173 ft 498 kts 237°
2026-05-08 02:14 71.88339 -70.58403 38182 ft 499 kts 237°
2026-05-08 02:14 71.84596 -70.76916 38177 ft 499 kts 237°
2026-05-08 02:15 71.80795 -70.95543 38180 ft 499 kts 236°
2026-05-08 02:15 71.76985 -71.14055 38179 ft 499 kts 236°
2026-05-08 02:16 71.73170 -71.32434 38181 ft 499 kts 236°
2026-05-08 02:16 71.69319 -71.50831 38184 ft 500 kts 236°
2026-05-08 02:17 71.65442 -71.69189 38185 ft 501 kts 236°
2026-05-08 02:17 71.61543 -71.87486 38187 ft 501 kts 235°
2026-05-08 02:18 71.57643 -72.05637 38188 ft 501 kts 235°
2026-05-08 02:18 71.53712 -72.23778 38183 ft 501 kts 235°
2026-05-08 02:19 71.49766 -72.41835 38184 ft 501 kts 235°
2026-05-08 02:19 71.45799 -72.59834 38188 ft 501 kts 234°
2026-05-08 02:20 71.41831 -72.77684 38177 ft 501 kts 234°
2026-05-08 02:20 71.37829 -72.95540 38169 ft 502 kts 234°
2026-05-08 02:21 71.33802 -73.13363 38168 ft 502 kts 234°
2026-05-08 02:21 71.29756 -73.31119 38167 ft 502 kts 234°
2026-05-08 02:22 71.25706 -73.48743 38169 ft 502 kts 233°
2026-05-08 02:22 71.21627 -73.66352 38150 ft 502 kts 233°
2026-05-08 02:23 71.17557 -73.83772 38137 ft 503 kts 233°
2026-05-08 02:23 71.13438 -74.01267 38135 ft 504 kts 233°
2026-05-08 02:24 71.09317 -74.18625 38116 ft 504 kts 233°
2026-05-08 02:24 71.05183 -74.35900 38137 ft 503 kts 233°
2026-05-08 02:25 71.01020 -74.53154 38126 ft 503 kts 232°
2026-05-08 02:25 70.96860 -74.70255 38125 ft 503 kts 232°
2026-05-08 02:26 70.92668 -74.87352 38108 ft 504 kts 232°
2026-05-08 02:26 70.88453 -75.04406 38110 ft 507 kts 232°
2026-05-08 02:27 70.84215 -75.21419 38107 ft 507 kts 232°
2026-05-08 02:27 70.79930 -75.38485 38105 ft 507 kts 231°
2026-05-08 02:28 70.75630 -75.55470 38104 ft 507 kts 231°
2026-05-08 02:28 70.71319 -75.72368 38090 ft 508 kts 231°
2026-05-08 02:29 70.66987 -75.89212 38091 ft 512 kts 231°
2026-05-08 02:29 70.62602 -76.06130 38083 ft 512 kts 231°
2026-05-08 02:30 70.58209 -76.22946 38070 ft 512 kts 231°
2026-05-08 02:30 70.53812 -76.39647 38069 ft 512 kts 230°
2026-05-08 02:31 70.49359 -76.56425 38045 ft 512 kts 230°
2026-05-08 02:31 70.44941 -76.72943 38045 ft 512 kts 230°
2026-05-08 02:32 70.40478 -76.89501 38049 ft 512 kts 230°
2026-05-08 02:32 70.35999 -77.05990 38007 ft 511 kts 230°
2026-05-08 02:33 70.31610 -77.22027 38021 ft 509 kts 229°
2026-05-08 02:33 70.27129 -77.38273 38004 ft 508 kts 229°
2026-05-08 02:34 70.22687 -77.54255 38005 ft 508 kts 229°
2026-05-08 02:34 70.18194 -77.70299 37982 ft 508 kts 229°
2026-05-08 02:35 70.13729 -77.86129 37985 ft 508 kts 229°
2026-05-08 02:35 70.09199 -78.02065 37985 ft 508 kts 229°
2026-05-08 02:36 70.04657 -78.17929 37977 ft 509 kts 229°
2026-05-08 02:36 70.00094 -78.33745 37977 ft 508 kts 229°
2026-05-08 02:37 69.95518 -78.49488 37971 ft 508 kts 228°
2026-05-08 02:37 69.90961 -78.65052 37974 ft 508 kts 228°
2026-05-08 02:38 69.86358 -78.80657 37971 ft 508 kts 228°
2026-05-08 02:38 69.81737 -78.96208 37962 ft 510 kts 228°
2026-05-08 02:39 69.77085 -79.11747 37965 ft 511 kts 227°
2026-05-08 02:39 69.72449 -79.27123 37957 ft 511 kts 227°
2026-05-08 02:40 69.67767 -79.42538 37957 ft 511 kts 227°
2026-05-08 02:40 69.63080 -79.57857 37959 ft 511 kts 227°
2026-05-08 02:41 69.58371 -79.73137 37952 ft 510 kts 227°
2026-05-08 02:41 69.53688 -79.88225 37952 ft 512 kts 227°
2026-05-08 02:42 69.48923 -80.03466 37944 ft 516 kts 227°
2026-05-08 02:42 69.44150 -80.18735 37944 ft 516 kts 227°
2026-05-08 02:43 69.39385 -80.33918 37941 ft 516 kts 227°
2026-05-08 02:43 69.34571 -80.49131 37930 ft 516 kts 227°
2026-05-08 02:44 69.29809 -80.64061 37934 ft 516 kts 227°
2026-05-08 02:44 69.24989 -80.79066 37926 ft 518 kts 226°
2026-05-08 02:45 69.20115 -80.94125 37925 ft 521 kts 227°
2026-05-08 02:45 69.15260 -81.09027 37914 ft 520 kts 227°
2026-05-08 02:46 69.10364 -81.23944 37912 ft 519 kts 226°
2026-05-08 02:46 69.05459 -81.38778 37911 ft 519 kts 226°
2026-05-08 02:47 69.00548 -81.53530 37903 ft 519 kts 226°
2026-05-08 02:47 68.95640 -81.68166 37906 ft 522 kts 226°
2026-05-08 02:48 68.90662 -81.82911 37893 ft 524 kts 226°
2026-05-08 02:48 68.85655 -81.97636 37895 ft 524 kts 226°
2026-05-08 02:49 68.80641 -82.12277 37889 ft 524 kts 226°
2026-05-08 02:49 68.75648 -82.26756 37894 ft 524 kts 225°
2026-05-08 02:50 68.70607 -82.41271 37888 ft 524 kts 225°
2026-05-08 02:50 68.65553 -82.55725 37888 ft 526 kts 225°
2026-05-08 02:51 68.60455 -82.70201 37888 ft 528 kts 225°
2026-05-08 02:51 68.55372 -82.84536 37881 ft 528 kts 225°
2026-05-08 02:52 68.50237 -82.98917 37882 ft 528 kts 224°
2026-05-08 02:52 68.45102 -83.13199 37872 ft 528 kts 224°
2026-05-08 02:53 68.39955 -83.27415 37880 ft 528 kts 224°
2026-05-08 02:53 68.34774 -83.41623 37874 ft 531 kts 223°
2026-05-08 02:54 68.29604 -83.55708 37865 ft 531 kts 223°
2026-05-08 02:54 68.24390 -83.69816 37864 ft 531 kts 223°
2026-05-08 02:55 68.16570 -83.90795 37853 ft 531 kts 223°
2026-05-08 02:56 68.11327 -84.04743 37854 ft 531 kts 222°
2026-05-08 02:56 68.06109 -84.18529 37846 ft 530 kts 222°
2026-05-08 02:57 68.00852 -84.32326 37840 ft 529 kts 222°
2026-05-08 02:57 67.95609 -84.45995 37848 ft 527 kts 222°
2026-05-08 02:58 67.90361 -84.59585 37848 ft 526 kts 222°
2026-05-08 02:58 67.85155 -84.72974 37848 ft 526 kts 221°
2026-05-08 02:59 67.79899 -84.86406 37837 ft 526 kts 221°
2026-05-08 02:59 67.74621 -84.99806 37837 ft 526 kts 221°
2026-05-08 03:00 67.69367 -85.13056 37827 ft 526 kts 221°
2026-05-08 03:00 67.64048 -85.26384 37829 ft 526 kts 221°
2026-05-08 03:01 67.58768 -85.39528 37817 ft 525 kts 221°
2026-05-08 03:01 67.53478 -85.52613 37821 ft 523 kts 221°
2026-05-08 03:02 67.48179 -85.65634 37827 ft 522 kts 221°
2026-05-08 03:02 67.42899 -85.78528 37806 ft 519 kts 221°
2026-05-08 03:03 67.37663 -85.91231 37807 ft 518 kts 221°
2026-05-08 03:03 67.32384 -86.03957 37801 ft 518 kts 221°
2026-05-08 03:04 67.27093 -86.16632 37802 ft 518 kts 221°
2026-05-08 03:04 67.21829 -86.29163 37793 ft 518 kts 221°
2026-05-08 03:05 67.16523 -86.41721 37816 ft 519 kts 221°
2026-05-08 03:05 67.11170 -86.54304 37791 ft 524 kts 220°
2026-05-08 03:06 67.05782 -86.66892 37791 ft 524 kts 220°
2026-05-08 03:06 67.00410 -86.79364 37798 ft 524 kts 220°
2026-05-08 03:07 66.95008 -86.91831 37793 ft 524 kts 220°
2026-05-08 03:07 66.89587 -87.04262 37792 ft 524 kts 220°
2026-05-08 03:08 66.84160 -87.16627 37803 ft 525 kts 220°
2026-05-08 03:08 66.78724 -87.28939 37795 ft 529 kts 220°
2026-05-08 03:09 66.73220 -87.41327 37783 ft 530 kts 219°
2026-05-08 03:09 66.67699 -87.53676 37792 ft 531 kts 219°
2026-05-08 03:10 66.62157 -87.65995 37794 ft 531 kts 219°
2026-05-08 03:10 66.56608 -87.78255 37778 ft 531 kts 219°
2026-05-08 03:11 66.51070 -87.90412 37798 ft 534 kts 219°
2026-05-08 03:11 66.45438 -88.02699 37787 ft 539 kts 219°
2026-05-08 03:12 66.39779 -88.14973 37766 ft 539 kts 219°
2026-05-08 03:12 66.34111 -88.27190 37758 ft 538 kts 219°
2026-05-08 03:13 66.28485 -88.39244 37769 ft 536 kts 219°
2026-05-08 03:13 66.22825 -88.51291 37757 ft 535 kts 218°
2026-05-08 03:14 66.17160 -88.63272 37759 ft 537 kts 218°
2026-05-08 03:14 66.11457 -88.75261 37746 ft 538 kts 218°
2026-05-08 03:15 66.05781 -88.87125 37749 ft 538 kts 218°
2026-05-08 03:15 66.00068 -88.98993 37755 ft 538 kts 218°
2026-05-08 03:16 65.94346 -89.10808 37746 ft 538 kts 218°
2026-05-08 03:16 65.88617 -89.22565 37743 ft 535 kts 218°
2026-05-08 03:17 65.82934 -89.34159 37750 ft 532 kts 218°
2026-05-08 03:17 65.77281 -89.45622 37746 ft 531 kts 218°
2026-05-08 03:18 65.71591 -89.57091 37738 ft 532 kts 217°
2026-05-08 03:18 65.65880 -89.68534 37740 ft 532 kts 217°
2026-05-08 03:19 65.60200 -89.79850 37747 ft 532 kts 218°
2026-05-08 03:19 65.54510 -89.91120 37730 ft 533 kts 218°
2026-05-08 03:20 65.48768 -90.02419 38015 ft 532 kts 217°
2026-05-08 03:20 65.45848 -90.07927 38176 ft 531 kts 216°
2026-05-08 03:20 65.42917 -90.13257 38295 ft 531 kts 215°
2026-05-08 03:20 65.39953 -90.18565 38414 ft 530 kts 215°
2026-05-08 03:21 65.36996 -90.23841 38522 ft 530 kts 215°
2026-05-08 03:21 65.31089 -90.34409 38719 ft 530 kts 215°
2026-05-08 03:21 65.28183 -90.39621 38837 ft 528 kts 214°
2026-05-08 03:22 65.25262 -90.44859 39149 ft 521 kts 215°
2026-05-08 03:22 65.22368 -90.50039 39303 ft 520 kts 214°
2026-05-08 03:22 65.19471 -90.55209 39300 ft 522 kts 215°
2026-05-08 03:23 65.13640 -90.65571 39360 ft 523 kts 214°
2026-05-08 03:23 65.07807 -90.75878 39532 ft 522 kts 214°
2026-05-08 03:24 65.02018 -90.86044 39653 ft 521 kts 215°
2026-05-08 03:24 64.96226 -90.96160 39707 ft 520 kts 216°
2026-05-08 03:25 64.90400 -91.06288 39712 ft 520 kts 215°
2026-05-08 03:25 64.84555 -91.16390 39702 ft 521 kts 215°
2026-05-08 03:26 64.78749 -91.26368 39698 ft 521 kts 215°
2026-05-08 03:26 64.72906 -91.36352 39718 ft 520 kts 215°
2026-05-08 03:27 64.67050 -91.46305 39700 ft 520 kts 215°
2026-05-08 03:27 64.61237 -91.56134 39712 ft 520 kts 215°
2026-05-08 03:28 64.55377 -91.65989 39709 ft 520 kts 215°
2026-05-08 03:28 64.49478 -91.75856 39706 ft 521 kts 215°
2026-05-08 03:29 64.43602 -91.85627 39704 ft 520 kts 215°
2026-05-08 03:29 64.37719 -91.95361 39711 ft 520 kts 215°
2026-05-08 03:30 64.28909 -92.09837 39708 ft 522 kts 215°
2026-05-08 03:31 64.17030 -92.29174 39704 ft 522 kts 215°
2026-05-08 03:32 64.08136 -92.43519 39698 ft 522 kts 215°
2026-05-08 03:32 64.02228 -92.52986 39718 ft 521 kts 214°
2026-05-08 03:33 63.96288 -92.62455 39690 ft 521 kts 214°
2026-05-08 03:33 63.90337 -92.71887 39705 ft 521 kts 214°
2026-05-08 03:34 63.84432 -92.81199 39694 ft 521 kts 214°
2026-05-08 03:34 63.78478 -92.90540 39686 ft 521 kts 214°
2026-05-08 03:35 63.72512 -92.99850 39699 ft 521 kts 214°
2026-05-08 03:35 63.66554 -93.09100 39680 ft 521 kts 214°
2026-05-08 03:36 63.60594 -93.18305 39690 ft 522 kts 214°
2026-05-08 03:36 63.54645 -93.27445 39696 ft 521 kts 214°
2026-05-08 03:37 63.48675 -93.36571 39698 ft 521 kts 214°
2026-05-08 03:37 63.42680 -93.45687 39688 ft 521 kts 214°
2026-05-08 03:38 63.31247 -93.62945 39683 ft 523 kts 214°
2026-05-08 03:39 63.25199 -93.72006 39698 ft 523 kts 213°
2026-05-08 03:39 63.19180 -93.80976 39686 ft 523 kts 213°
2026-05-08 03:40 63.13132 -93.89945 39688 ft 524 kts 213°
2026-05-08 03:40 63.07069 -93.98891 39703 ft 524 kts 213°
2026-05-08 03:41 63.01044 -94.07733 39691 ft 524 kts 213°
2026-05-08 03:41 62.95005 -94.16555 39690 ft 524 kts 213°
2026-05-08 03:42 62.88913 -94.25407 39700 ft 524 kts 213°
2026-05-08 03:42 62.82869 -94.34146 39700 ft 524 kts 213°
2026-05-08 03:43 62.76784 -94.42901 39693 ft 524 kts 213°
2026-05-08 03:43 62.70693 -94.51619 39699 ft 524 kts 213°
2026-05-08 03:44 62.64590 -94.60312 39701 ft 524 kts 213°
2026-05-08 03:44 62.58481 -94.68968 39696 ft 524 kts 213°
2026-05-08 03:45 62.52413 -94.77525 39701 ft 524 kts 213°
2026-05-08 03:45 62.46315 -94.86081 39701 ft 524 kts 213°
2026-05-08 03:46 62.40195 -94.94626 39700 ft 524 kts 213°
2026-05-08 03:46 62.34072 -95.03133 39702 ft 524 kts 213°
2026-05-08 03:47 62.27931 -95.11625 39684 ft 524 kts 212°
2026-05-08 03:47 62.21828 -95.20020 39697 ft 525 kts 212°
2026-05-08 03:48 62.15669 -95.28453 39705 ft 525 kts 212°
2026-05-08 03:48 62.09499 -95.36859 39709 ft 525 kts 212°
2026-05-08 03:49 62.03342 -95.45206 39700 ft 525 kts 212°
2026-05-08 03:49 61.97223 -95.53461 39712 ft 525 kts 212°
2026-05-08 03:50 61.91043 -95.61760 39705 ft 525 kts 212°
2026-05-08 03:50 61.84884 -95.69988 39706 ft 525 kts 212°
2026-05-08 03:51 61.78705 -95.78205 39718 ft 524 kts 212°
2026-05-08 03:51 61.72579 -95.86313 39717 ft 524 kts 212°
2026-05-08 03:52 61.66437 -95.94403 39717 ft 524 kts 212°
2026-05-08 03:52 61.60270 -96.02487 39727 ft 524 kts 212°
2026-05-08 03:53 61.54080 -96.10563 39725 ft 524 kts 212°
2026-05-08 03:53 61.47932 -96.18546 39723 ft 524 kts 211°
2026-05-08 03:54 61.41738 -96.26551 39737 ft 524 kts 211°
2026-05-08 03:54 61.35534 -96.34531 39735 ft 524 kts 211°
2026-05-08 03:55 61.29333 -96.42470 39732 ft 524 kts 211°
2026-05-08 03:55 61.23156 -96.50340 39746 ft 524 kts 211°
2026-05-08 03:56 61.16945 -96.58218 39749 ft 524 kts 211°
2026-05-08 03:56 61.10723 -96.66073 39744 ft 524 kts 211°
2026-05-08 03:57 61.04511 -96.73877 39743 ft 524 kts 211°
2026-05-08 03:57 60.98277 -96.81675 39744 ft 524 kts 211°
2026-05-08 03:58 60.92092 -96.89374 39738 ft 523 kts 211°
2026-05-08 03:58 60.85861 -96.97096 39760 ft 521 kts 212°
2026-05-08 03:59 60.79656 -97.04749 39753 ft 521 kts 212°
2026-05-08 03:59 60.73437 -97.12385 39764 ft 521 kts 212°
2026-05-08 04:00 60.67262 -97.19933 39768 ft 521 kts 211°
2026-05-08 04:00 60.61038 -97.27507 39770 ft 521 kts 211°
2026-05-08 04:01 60.54820 -97.35039 39793 ft 521 kts 211°
2026-05-08 04:01 60.48581 -97.42561 39784 ft 521 kts 211°
2026-05-08 04:02 60.42350 -97.50040 39780 ft 522 kts 211°
2026-05-08 04:02 60.36131 -97.57471 39797 ft 522 kts 211°
2026-05-08 04:03 60.29884 -97.64903 39797 ft 522 kts 211°
2026-05-08 04:03 60.20495 -97.76011 39798 ft 522 kts 211°
2026-05-08 04:04 60.14234 -97.83376 39818 ft 522 kts 211°
2026-05-08 04:04 60.07999 -97.90677 39816 ft 522 kts 211°
2026-05-08 04:05 60.01724 -97.97993 39816 ft 522 kts 211°
2026-05-08 04:05 59.95461 -98.05288 39826 ft 521 kts 211°
2026-05-08 04:06 59.89204 -98.12593 39828 ft 520 kts 211°
2026-05-08 04:06 59.82996 -98.19813 39845 ft 521 kts 211°
2026-05-08 04:07 59.76739 -98.27051 39847 ft 520 kts 211°
2026-05-08 04:07 59.70475 -98.34261 39847 ft 521 kts 211°
2026-05-08 04:08 59.64241 -98.41405 39853 ft 521 kts 211°
2026-05-08 04:08 59.57940 -98.48595 39853 ft 520 kts 211°
2026-05-08 04:09 59.51705 -98.55677 39864 ft 519 kts 211°
2026-05-08 04:09 59.45443 -98.62761 39880 ft 519 kts 211°
2026-05-08 04:10 59.39177 -98.69818 39861 ft 519 kts 211°
2026-05-08 04:10 59.32956 -98.76796 39874 ft 519 kts 211°
2026-05-08 04:11 59.26679 -98.83805 39880 ft 519 kts 211°
2026-05-08 04:11 59.20409 -98.90776 39894 ft 518 kts 211°
2026-05-08 04:12 59.14143 -98.97714 39880 ft 518 kts 211°
2026-05-08 04:12 59.07905 -99.04591 39881 ft 518 kts 211°
2026-05-08 04:13 59.01653 -99.11455 39878 ft 517 kts 210°
2026-05-08 04:13 58.95372 -99.18321 39883 ft 517 kts 211°
2026-05-08 04:14 58.89111 -99.25138 39881 ft 518 kts 211°
2026-05-08 04:14 58.82819 -99.31959 39880 ft 518 kts 210°
2026-05-08 04:15 58.76584 -99.38690 39883 ft 518 kts 210°
2026-05-08 04:15 58.70299 -99.45447 39879 ft 518 kts 210°
2026-05-08 04:16 58.63998 -99.52192 39874 ft 517 kts 211°
2026-05-08 04:16 58.57722 -99.58882 39881 ft 516 kts 211°
2026-05-08 04:17 58.51479 -99.65511 39882 ft 516 kts 211°
2026-05-08 04:17 58.45199 -99.72152 39880 ft 516 kts 211°
2026-05-08 04:18 58.38911 -99.78774 39882 ft 516 kts 211°
2026-05-08 04:18 58.32621 -99.85370 39880 ft 516 kts 210°
2026-05-08 04:19 58.26333 -99.91938 39878 ft 516 kts 210°
2026-05-08 04:19 58.20075 -99.98449 39879 ft 516 kts 211°
2026-05-08 04:20 58.13776 -100.04973 39878 ft 516 kts 211°
2026-05-08 04:20 58.07470 -100.11479 39877 ft 516 kts 211°
2026-05-08 04:21 58.01183 -100.17940 39882 ft 515 kts 210°
2026-05-08 04:21 57.94913 -100.24357 39877 ft 515 kts 210°
2026-05-08 04:22 57.88616 -100.30776 39878 ft 515 kts 210°
2026-05-08 04:22 57.82303 -100.37186 39878 ft 515 kts 210°
2026-05-08 04:23 57.75997 -100.43563 39881 ft 515 kts 211°
2026-05-08 04:23 57.69677 -100.49928 39881 ft 516 kts 210°
2026-05-08 04:24 57.63388 -100.56238 39878 ft 516 kts 210°
2026-05-08 04:24 57.57062 -100.62559 39878 ft 516 kts 210°
2026-05-08 04:25 57.50727 -100.68863 39881 ft 516 kts 210°
2026-05-08 04:25 57.44394 -100.75141 39881 ft 516 kts 210°
2026-05-08 04:26 57.38084 -100.81372 39861 ft 516 kts 210°
2026-05-08 04:26 57.31744 -100.87606 39883 ft 516 kts 210°
2026-05-08 04:27 57.25407 -100.93815 39884 ft 516 kts 210°
2026-05-08 04:27 57.19066 -101.00003 39884 ft 516 kts 210°
2026-05-08 04:28 57.12766 -101.06127 39885 ft 515 kts 210°
2026-05-08 04:28 57.06423 -101.12269 39883 ft 515 kts 210°
2026-05-08 04:29 57.00081 -101.18385 39886 ft 515 kts 210°
2026-05-08 04:29 56.93735 -101.24482 39823 ft 515 kts 210°
2026-05-08 04:30 56.87372 -101.30572 39889 ft 515 kts 210°
2026-05-08 04:30 56.81027 -101.36620 39894 ft 515 kts 210°
2026-05-08 04:31 56.74701 -101.42628 39890 ft 515 kts 210°
2026-05-08 04:31 56.68348 -101.48640 39888 ft 515 kts 210°
2026-05-08 04:32 56.61982 -101.54639 39889 ft 515 kts 210°
2026-05-08 04:32 56.55650 -101.60584 39889 ft 515 kts 210°
2026-05-08 04:33 56.49285 -101.66538 39891 ft 515 kts 210°
2026-05-08 04:33 56.42915 -101.72473 39894 ft 515 kts 210°
2026-05-08 04:34 56.36537 -101.78393 39885 ft 516 kts 210°
2026-05-08 04:34 56.30148 -101.84301 39890 ft 516 kts 210°
2026-05-08 04:35 56.23804 -101.90145 39889 ft 515 kts 210°
2026-05-08 04:35 56.17416 -101.96007 39896 ft 515 kts 210°
2026-05-08 04:36 56.11030 -102.01846 39889 ft 515 kts 210°
2026-05-08 04:36 56.04646 -102.07661 39885 ft 515 kts 210°
2026-05-08 04:37 55.98295 -102.13426 39895 ft 515 kts 210°
2026-05-08 04:37 55.91900 -102.19208 39894 ft 516 kts 210°
2026-05-08 04:38 55.85485 -102.24987 39893 ft 516 kts 210°
2026-05-08 04:38 55.79085 -102.30731 39892 ft 516 kts 210°
2026-05-08 04:39 55.72681 -102.36456 39894 ft 516 kts 210°
2026-05-08 04:39 55.66314 -102.42128 39877 ft 516 kts 210°
2026-05-08 04:40 55.59899 -102.47822 39892 ft 516 kts 210°
2026-05-08 04:40 55.53484 -102.53495 39893 ft 516 kts 210°
2026-05-08 04:41 55.47064 -102.59152 39892 ft 516 kts 210°
2026-05-08 04:41 55.40689 -102.64748 39889 ft 516 kts 209°
2026-05-08 04:42 55.34265 -102.70368 39886 ft 516 kts 209°
2026-05-08 04:42 55.27828 -102.75977 39883 ft 516 kts 209°
2026-05-08 04:43 55.21397 -102.81561 39881 ft 515 kts 209°
2026-05-08 04:43 55.15015 -102.87083 39883 ft 515 kts 209°
2026-05-08 04:44 55.08586 -102.92625 39882 ft 515 kts 209°
2026-05-08 04:44 55.02155 -102.98150 39884 ft 515 kts 209°
2026-05-08 04:45 54.95769 -103.03729 39881 ft 514 kts 211°
2026-05-08 04:45 54.89460 -103.09596 39881 ft 514 kts 211°
2026-05-08 04:46 54.83203 -103.15432 39865 ft 514 kts 211°
2026-05-08 04:46 54.76885 -103.21250 39875 ft 513 kts 211°
2026-05-08 04:47 54.70567 -103.27015 39875 ft 513 kts 211°
2026-05-08 04:47 54.64245 -103.32755 39873 ft 513 kts 211°
2026-05-08 04:48 54.57954 -103.38448 39872 ft 513 kts 211°
2026-05-08 04:48 54.51638 -103.44146 39867 ft 513 kts 211°
2026-05-08 04:49 54.45300 -103.49845 39846 ft 514 kts 211°
2026-05-08 04:49 54.38963 -103.55521 39871 ft 513 kts 211°
2026-05-08 04:50 54.32665 -103.61144 39862 ft 513 kts 211°
2026-05-08 04:50 54.26327 -103.66783 39864 ft 513 kts 211°
2026-05-08 04:51 54.19988 -103.72403 39856 ft 513 kts 211°
2026-05-08 04:51 54.13683 -103.77973 39851 ft 513 kts 211°
2026-05-08 04:52 54.07344 -103.83554 39855 ft 513 kts 211°
2026-05-08 04:52 54.00999 -103.89119 39851 ft 513 kts 211°
2026-05-08 04:53 53.94656 -103.94665 39853 ft 513 kts 211°
2026-05-08 04:53 53.88296 -104.00209 39859 ft 513 kts 211°
2026-05-08 04:54 53.81995 -104.05681 39853 ft 513 kts 211°
2026-05-08 04:54 53.75638 -104.11182 39863 ft 513 kts 211°
2026-05-08 04:55 53.69283 -104.16662 39854 ft 513 kts 211°
2026-05-08 04:55 53.62916 -104.22134 39851 ft 513 kts 211°
2026-05-08 04:56 53.56560 -104.27579 39857 ft 513 kts 211°
2026-05-08 04:56 53.50249 -104.32967 39857 ft 513 kts 211°
2026-05-08 04:57 53.43888 -104.38379 39859 ft 513 kts 211°
2026-05-08 04:57 53.37523 -104.43777 39859 ft 513 kts 210°
2026-05-08 04:58 53.31146 -104.49166 39857 ft 512 kts 210°
2026-05-08 04:58 53.24785 -104.54521 39866 ft 512 kts 210°
2026-05-08 04:59 53.18466 -104.59826 39867 ft 512 kts 210°
2026-05-08 04:59 53.12109 -104.65146 39874 ft 512 kts 210°
2026-05-08 05:00 53.06820 -104.69558 39874 ft 512 kts 210°
2026-05-08 05:00 52.99396 -104.75730 39881 ft 512 kts 210°
2026-05-08 05:01 52.93009 -104.81021 39877 ft 512 kts 210°
2026-05-08 05:01 52.86671 -104.86253 39880 ft 512 kts 210°
2026-05-08 05:02 52.80303 -104.91494 39885 ft 511 kts 210°
2026-05-08 05:02 52.75019 -104.95829 39885 ft 511 kts 210°
2026-05-08 05:03 52.68641 -105.01046 39884 ft 511 kts 210°
2026-05-08 05:03 52.62310 -105.06208 39887 ft 511 kts 210°
2026-05-08 05:04 52.55943 -105.11383 39885 ft 511 kts 210°
2026-05-08 05:04 52.49573 -105.16542 39889 ft 511 kts 210°
2026-05-08 05:05 52.43187 -105.21698 39883 ft 511 kts 210°
2026-05-08 05:05 52.35782 -105.27656 39892 ft 511 kts 210°
2026-05-08 05:06 52.30472 -105.31915 39893 ft 511 kts 210°
2026-05-08 05:06 52.24091 -105.37017 39885 ft 511 kts 210°
2026-05-08 05:07 52.17711 -105.42101 39891 ft 510 kts 210°
2026-05-08 05:07 52.11332 -105.47168 39891 ft 511 kts 210°
2026-05-08 05:08 52.04942 -105.52230 39891 ft 511 kts 210°
2026-05-08 05:08 51.98577 -105.57256 39892 ft 511 kts 210°
2026-05-08 05:09 51.92174 -105.62310 39894 ft 512 kts 210°
2026-05-08 05:09 51.85786 -105.67399 39892 ft 512 kts 210°
2026-05-08 05:10 51.76200 -105.75014 39894 ft 512 kts 210°
2026-05-08 05:11 51.69844 -105.80035 39897 ft 512 kts 210°
2026-05-08 05:11 51.63455 -105.85064 39902 ft 511 kts 210°
2026-05-08 05:12 51.57058 -105.90082 39899 ft 511 kts 210°
2026-05-08 05:12 51.50676 -105.95074 39900 ft 511 kts 210°
2026-05-08 05:13 51.44276 -106.00064 39900 ft 511 kts 210°
2026-05-08 05:13 51.37922 -106.05002 39899 ft 511 kts 210°
2026-05-08 05:14 51.31540 -106.09947 39903 ft 510 kts 210°
2026-05-08 05:14 51.25152 -106.14882 39903 ft 510 kts 210°
2026-05-08 05:15 51.18760 -106.19804 39905 ft 510 kts 210°
2026-05-08 05:15 51.12405 -106.24682 39902 ft 510 kts 210°
2026-05-08 05:16 51.06018 -106.29571 39877 ft 510 kts 210°
2026-05-08 05:16 50.99611 -106.34455 39906 ft 510 kts 210°
2026-05-08 05:17 50.93243 -106.39300 39906 ft 511 kts 210°
2026-05-08 05:17 50.86839 -106.44157 39904 ft 511 kts 210°
2026-05-08 05:18 50.80440 -106.48995 39906 ft 510 kts 210°
2026-05-08 05:18 50.74021 -106.53833 39911 ft 510 kts 210°
2026-05-08 05:19 50.67614 -106.58646 39901 ft 511 kts 210°
2026-05-08 05:19 50.61205 -106.63447 39887 ft 511 kts 210°
2026-05-08 05:20 50.54824 -106.68213 39895 ft 511 kts 210°
2026-05-08 05:20 50.48403 -106.72994 39892 ft 511 kts 210°
2026-05-08 05:21 50.41969 -106.77770 39890 ft 511 kts 210°
2026-05-08 05:21 50.35542 -106.82526 39889 ft 511 kts 210°
2026-05-08 05:22 50.29146 -106.87246 39887 ft 512 kts 210°
2026-05-08 05:22 50.22704 -106.91986 39887 ft 512 kts 210°
2026-05-08 05:23 50.16254 -106.96716 39889 ft 512 kts 210°
2026-05-08 05:23 50.09849 -107.01399 39888 ft 512 kts 210°
2026-05-08 05:24 50.03398 -107.06103 39891 ft 512 kts 210°
2026-05-08 05:24 49.96940 -107.10797 39882 ft 513 kts 210°
2026-05-08 05:25 49.90480 -107.15480 39894 ft 513 kts 210°
2026-05-08 05:25 49.84041 -107.20133 39888 ft 513 kts 210°
2026-05-08 05:26 49.77577 -107.24790 39891 ft 513 kts 210°
2026-05-08 05:26 49.71107 -107.29437 39890 ft 513 kts 210°
2026-05-08 05:27 49.64627 -107.34079 39888 ft 513 kts 210°
2026-05-08 05:27 49.58198 -107.38669 39894 ft 514 kts 210°